User: anonymous   Login
Location: Axtheid
(49.6213°N, 11.8205°E)
Time: 15:29:34
(UTC+00:00)
Language:

Cosmos 1939 Rocket - Orbit

View from above orbital plane
View from above orbital plane
View from above satellite
View from above satellite

Ground track
Ground track

The orbit data is extracted from the following two-line orbital elements,

1 19046U 88032B   21104.55635923 -.00000020  00000-0  29049-5 0  9999
2 19046  97.3922 118.0260 0034564 259.8609  99.8717 15.02907409782187
Epoch (UTC): 14 April 2021 13:21:09
Eccentricity: 0.0034564
inclination: 97.3922°
perigee height: 534 km
apogee height: 582 km
right ascension of ascending node: 118.0260°
argument of perigee: 259.8609°
revolutions per day: 15.02907409
mean anomaly at epoch: 99.8717°
orbit number at epoch: 78218

The dashed part of the orbit path shows where the satellite is in the earth's shadow,  

DLR